Temp
23 22 22 22 22 22 22 22 22 22 22 22 22 21 21 21 21 20 20 20 20 20 20 20 20 20 20 19 19 19 18 18 18 17 17 17 17 17 17 17 17 17 17
23 23 22 22 22 22 22 22 22 22 22 22 22 21 21 21 21 20 20 20 20 20 20 20 20 20 20 20 20 20 19 19 18 17 17 17 17 17 16 16 16 16 16
24 23 22 22 22 22 22 22 22 22 22 22 22 22 21 21 21 21 21 21 20 20 20 20 21 20 20 20 20 19 18 18 18 17 16 16 16 16 16 15 15 15 15
23 23 22 22 22 22 22 22 22 21 22 22 22 22 21 21 21 21 21 21 21 21 21 21 21 20 20 20 20 19 18 18 16 16 16 16 16 16 16 15 14 14 14
21 20 20 21 23 22 21 21 21 21 21 21 21 21 21 21 21 21 21 21 21 21 21 21 21 20 20 20 19 19 18 17 17 16 15 15 15 15 15 15 14 14 14
20 21 21 18 21 21 21 21 21 22 23 22 21 21 21 21 22 22 21 21 21 20 20 20 20 20 19 19 19 19 18 17 16 16 15 15 15 15 15 15 14 13 14
25 25 25 21 19 21 20 21 22 21 23 23 23 21 21 21 21 21 21 21 21 20 20 20 20 20 19 19 19 18 17 17 17 17 16 16 15 15 15 15 14 14 14
24 23 23 19 18 19 20 20 22 22 25 24 22 21 21 21 21 21 21 21 21 20 20 20 20 19 19 19 19 18 17 17 17 17 17 17 16 16 16 16 15 15 14
20 24 20 18 18 19 19 20 22 22 23 23 23 21 20 21 21 22 20 20 20 20 19 19 20 19 19 18 18 17 17 17 17 17 17 17 17 16 15 15 15 14 14
17 17 18 19 18 18 18 19 20 18 18 20 20 19 19 19 20 21 20 19 19 19 18 19 19 19 19 18 18 18 17 17 17 17 17 17 16 16 15 15 15 14 14
16 17 17 18 18 18 17 17 17 17 17 18 19 19 18 17 19 18 18 18 19 19 18 18 18 18 18 18 17 17 17 17 17 17 16 16 16 15 15 15 15 15 15
16 17 17 16 17 17 17 17 17 18 18 17 16 15 16 17 18 19 19 18 19 18 18 18 18 18 18 17 17 18 17 16 16 16 16 16 16 16 16 15 15 15 15
15 16 16 16 16 16 16 16 16 16 15 14 14 14 15 16 18 17 17 17 17 18 18 18 18 17 17 17 17 17 17 16 16 15 16 16 16 16 16 16 16 15 15
13 14 14 16 16 16 16 17 15 14 14 14 14 15 16 16 16 16 15 15 16 16 16 16 16 16 16 17 16 16 16 16 16 16 16 16 16 16 16 16 15 15 14
12 12 13 14 15 15 16 16 15 14 13 14 14 15 16 16 15 15 16 15 15 16 16 15 15 15 15 15 15 15 15 15 16 15 15 15 15 16 16 16 15 14 14
12 12 12 13 14 14 15 15 15 14 14 14 15 15 16 16 16 16 16 16 16 15 15 14 14 14 15 15 15 15 15 15 15 14 14 14 14 14 14 14 14 13 13
13 13 12 12 13 13 14 15 15 14 13 14 15 17 16 16 16 16 16 15 15 15 14 14 14 14 14 14 15 15 14 14 14 14 13 13 13 13 13 12 12 12 12
14 14 13 13 13 13 14 15 14 13 13 11 12 14 16 17 17 16 15 15 14 14 15 14 14 14 14 14 14 14 13 13 13 12 12 12 12 12 12 12 12 11 11
13 13 13 14 14 13 14 13 13 12 10 10 10 10 13 15 14 14 14 14 14 14 14 14 14 14 14 14 13 13 12 12 12 12 11 11 11 12 11 11 11 11 10
13 14 13 13 14 14 13 13 12 12 12 12 11 10 11 13 12 13 13 14 14 14 14 14 13 13 13 13 12 11 11 12 12 11 12 11 11 10 11 11 10 10 10
12 13 14 14 13 14 14 13 13 13 12 12 13 13 13 14 14 13 14 13 13 13 13 13 13 12 12 12 12 12 11 11 11 11 11 11 11 10 10 10 10 9 9
12 13 13 13 14 13 14 14 13 13 13 13 13 13 13 13 13 12 12 12 13 13 13 13 12 12 12 12 12 11 11 11 10 10 10 10 10 10 9 9 9 8 9
13 13 13 13 13 13 13 14 14 13 13 13 13 12 12 11 11 11 11 11 12 12 11 12 12 11 11 11 11 11 10 10 10 10 10 9 9 9 9 9 9 8 8
13 13 13 13 13 12 12 12 13 13 13 13 12 12 11 11 11 11 11 11 11 11 11 12 11 11 11 11 10 10 10 10 10 9 9 9 9 9 9 8 8 8 8
13 13 13 13 13 12 12 12 12 12 12 12 11 10 10 10 10 10 11 11 11 11 11 11 11 10 10 10 10 9 9 9 9 9 9 9 8 8 8 8 7 6 6
14 14 13 13 13 13 12 12 11 11 11 12 11 11 11 11 11 11 11 11 11 11 11 10 10 10 10 10 9 9 9 8 8 8 8 8 8 7 7 7 6 6 5
Height
738 745 750 751 754 758 762 767 771 774 775 775 776 778 780 780 779 779 779 779 778 779 781 783 784 787 788 790 791 792 793 795 797 799 799 801 802 804 805 807 809 810 811
731 741 746 749 747 753 758 763 768 770 773 775 775 776 778 779 779 778 778 778 779 779 779 778 779 782 784 786 787 788 790 792 794 795 796 798 799 800 801 804 806 809 810
731 738 745 749 746 751 755 759 761 765 767 768 769 770 772 774 775 775 775 776 777 777 776 776 776 777 779 781 782 784 786 788 789 791 792 793 796 798 800 800 804 807 810
731 735 740 746 745 750 752 754 756 758 761 762 763 765 767 768 769 770 771 772 773 773 773 774 776 776 775 776 778 779 780 783 785 787 789 791 792 794 796 798 802 807 810
733 737 741 740 740 746 746 749 750 746 749 752 752 753 755 757 762 765 767 768 771 771 771 771 771 774 775 774 775 777 778 778 781 784 786 788 789 791 793 797 800 803 808
729 727 735 740 740 740 740 740 741 736 725 733 740 740 741 749 751 755 760 762 763 766 769 770 769 769 773 773 772 772 775 776 776 778 781 784 786 789 792 795 799 802 806
715 719 715 727 741 735 735 736 733 732 728 727 730 735 742 744 749 755 758 760 761 762 763 766 768 767 769 772 770 770 772 774 777 778 779 780 783 785 789 793 795 798 802
711 712 710 740 745 730 729 731 730 726 724 723 728 730 736 741 745 749 752 755 758 759 761 762 764 765 765 768 769 767 770 771 774 777 778 780 782 783 784 788 792 796 800
713 719 724 730 730 722 723 725 723 723 720 719 722 727 731 736 740 740 746 750 752 756 756 759 760 761 763 765 767 767 766 769 771 776 779 779 780 782 785 787 790 794 797
727 731 727 724 721 718 719 719 723 724 720 721 721 726 726 732 736 737 736 742 745 750 753 755 756 758 760 764 765 766 767 768 770 772 776 779 779 781 784 786 788 791 794
725 724 723 718 717 716 718 721 723 722 721 721 721 723 722 727 726 731 732 734 740 746 750 750 753 755 758 760 764 764 767 767 769 773 776 778 780 781 781 783 785 787 789
725 723 724 722 720 718 719 720 719 717 714 714 715 716 717 719 719 720 726 729 734 741 745 747 750 752 755 757 760 762 764 769 769 771 774 777 779 780 782 784 785 786 787
720 718 719 719 716 714 714 713 709 709 708 708 710 711 708 707 707 710 717 721 728 735 742 745 747 751 751 755 757 760 762 765 768 770 771 775 776 778 781 783 784 785 786
718 716 713 711 710 710 709 708 704 703 704 704 704 703 700 702 701 705 711 718 723 732 737 742 747 750 749 751 755 757 760 762 764 767 769 772 776 776 778 779 781 781 783
716 714 711 707 704 702 704 702 701 700 702 702 699 699 700 699 698 699 703 715 721 728 734 739 744 746 745 749 751 754 758 761 761 763 767 770 773 775 776 778 778 780 781
724 720 716 713 710 707 703 700 698 697 698 700 698 695 700 701 701 698 706 713 721 726 733 739 742 744 742 746 750 753 754 757 759 763 765 768 771 773 775 777 778 778 780
723 723 725 722 715 708 703 702 700 697 697 695 694 694 698 697 702 704 704 713 721 726 733 738 741 742 744 747 750 752 754 755 758 759 761 765 768 772 774 775 775 779 779
722 721 721 719 715 707 701 699 698 697 693 693 692 689 693 692 699 703 705 708 715 723 730 733 737 741 744 748 750 752 755 756 758 759 761 764 767 770 773 776 777 779 780
723 719 717 715 711 705 703 702 699 696 695 695 691 691 689 691 692 698 702 706 714 723 728 732 737 741 744 748 751 755 756 757 758 759 763 766 770 773 776 777 778 780 781
720 716 716 712 708 707 705 704 701 699 701 700 701 699 697 698 704 703 705 711 713 722 728 735 738 744 747 749 752 755 758 760 762 763 766 767 769 773 777 779 780 781 782
718 716 714 711 707 707 709 708 707 707 707 706 704 704 706 706 706 710 712 716 718 722 730 736 742 748 750 751 756 759 760 761 762 765 768 770 773 775 776 780 783 783 784
721 717 714 712 707 707 713 710 707 707 709 709 709 709 711 713 713 718 719 722 723 725 732 738 744 748 751 753 757 758 760 761 765 766 770 772 774 777 779 781 783 786 788
720 715 712 710 708 704 709 712 707 708 709 709 711 712 715 717 718 722 723 725 727 731 735 740 745 749 754 758 759 759 761 764 767 771 773 773 774 779 781 782 783 785 787
715 713 712 709 707 706 711 711 709 708 709 711 714 717 719 721 723 726 728 731 734 738 742 745 749 752 755 758 760 762 764 767 769 772 774 773 774 776 778 779 781 783 784
718 717 716 714 712 713 714 712 713 712 712 714 717 721 723 726 729 731 733 737 739 743 746 751 753 756 758 759 761 763 766 769 770 772 774 775 775 775 777 777 778 779 782
721 720 719 719 718 717 717 717 717 717 717 719 721 724 726 729 732 735 737 741 745 745 749 754 756 759 760 761 762 765 768 770 771 771 772 773 774 776 776 778 777 778 779
Wind_Speed
25 27 26 27 24 21 17 15 13 10 9 8 8 9 10 10 9 10 11 12 13 13 13 13 12 9 8 9 12 15 19 16 7 3 7 11 11 13 12 10 8 7 7
26 25 27 28 25 23 19 15 11 10 10 10 10 10 10 12 12 13 13 13 14 14 14 14 15 13 12 10 9 13 14 11 11 10 14 15 15 18 16 13 11 8 7
22 22 25 28 24 22 17 15 13 11 11 10 12 13 14 15 16 17 15 14 13 12 13 14 14 11 10 9 8 8 9 16 22 17 13 17 18 18 15 11 10 9 8
20 22 25 29 24 21 18 16 15 12 12 13 13 14 15 15 16 17 17 17 17 15 11 11 12 14 13 9 9 7 6 6 12 15 15 13 16 18 21 17 11 9 9
8 9 19 26 25 22 18 17 19 19 18 18 19 19 19 21 20 19 18 16 16 15 13 12 11 11 12 9 9 9 7 6 8 11 8 6 11 11 15 16 15 12 10
13 15 18 26 23 24 23 24 27 29 31 26 28 29 27 25 24 22 21 19 16 17 16 13 12 13 12 10 8 7 8 11 10 11 11 9 12 14 18 19 16 9 4
7 11 13 30 29 28 27 30 32 31 25 27 31 31 26 27 24 22 22 21 17 17 17 15 14 13 12 11 7 6 8 7 4 6 9 11 11 17 21 20 18 12 7
17 19 15 49 37 31 32 36 35 33 25 31 31 28 28 27 26 24 23 22 19 16 16 16 16 16 13 11 7 9 8 8 5 4 4 5 9 11 20 23 21 17 10
6 18 22 31 36 35 39 38 35 36 32 34 34 28 29 25 29 26 23 24 19 18 16 16 16 16 13 11 9 10 10 7 6 5 2 1 2 5 13 16 15 15 5
11 9 14 22 30 33 34 35 32 29 28 30 30 28 24 29 24 28 27 28 23 20 18 16 15 16 14 13 12 10 10 8 8 9 6 5 4 7 9 13 15 16 7
15 15 14 10 14 18 13 19 20 19 17 22 25 31 29 30 25 27 27 31 27 23 21 18 17 17 15 14 12 8 8 9 10 8 7 6 5 7 9 12 13 15 16
12 12 14 9 6 8 11 16 19 21 26 26 24 26 28 25 23 29 30 34 29 25 23 21 18 18 15 13 11 8 8 7 10 10 9 6 5 5 6 7 9 11 13
18 14 12 12 9 7 8 10 12 17 21 19 16 17 23 24 28 28 33 36 27 21 20 21 20 18 16 13 11 10 11 9 7 7 7 6 6 5 5 7 8 10 12
17 17 17 16 13 11 9 11 12 12 16 15 12 16 15 17 22 29 29 28 22 19 19 19 18 17 16 14 13 12 11 10 8 6 6 6 6 6 5 6 6 7 9
26 24 24 22 18 16 13 12 15 14 16 15 15 17 8 12 21 27 31 27 24 24 23 21 19 19 19 16 13 11 8 7 7 7 7 6 6 6 6 6 5 4 6
14 19 20 18 18 15 16 16 15 15 15 16 14 9 17 12 12 18 24 20 21 25 25 19 15 16 17 15 11 9 9 7 6 5 5 5 4 4 4 3 2 1 0
18 15 16 15 16 15 15 13 13 15 12 9 10 13 15 13 16 13 24 21 24 25 13 13 13 14 13 13 11 10 9 7 7 7 6 4 3 2 3 3 4 3 3
20 18 16 17 16 17 15 13 8 6 6 9 11 4 17 13 16 18 27 27 26 20 16 15 14 14 13 13 12 13 14 13 13 13 12 11 10 10 9 8 9 8 8
19 20 22 17 17 18 12 5 4 5 6 7 10 6 11 18 20 24 29 27 22 16 13 13 13 15 16 17 15 13 13 13 13 16 15 15 13 11 9 7 7 8 8
19 17 18 17 13 14 13 5 6 9 10 14 14 10 19 25 17 20 14 19 22 18 17 17 17 18 18 16 17 18 19 16 14 12 11 10 10 8 7 5 5 5 6
17 20 17 16 13 9 10 2 8 9 7 10 16 15 14 18 17 12 13 11 21 23 23 22 19 19 20 20 16 14 13 13 13 12 11 10 9 10 9 7 8 9 8
15 14 15 13 12 6 6 2 6 7 10 11 11 13 13 15 16 14 16 18 21 24 23 24 22 19 17 17 16 15 14 14 13 13 14 14 14 13 11 10 8 6 6
14 14 13 11 9 7 5 7 2 11 12 14 15 14 16 18 18 18 18 19 20 22 23 23 21 21 18 16 14 13 14 13 12 11 10 10 10 8 6 5 4 2 1
15 11 12 10 10 9 6 3 2 10 15 14 13 12 14 17 22 24 25 26 25 24 23 22 21 21 19 17 15 13 12 10 9 8 8 8 7 6 6 5 4 2 2
15 12 11 10 10 11 10 10 11 15 17 17 17 16 18 20 22 23 24 24 25 26 25 23 22 20 17 15 12 10 8 6 5 5 5 6 6 5 5 4 3 3 2
11 11 10 8 8 9 10 11 12 14 16 15 15 19 23 22 23 23 25 26 25 25 23 20 18 15 13 10 9 8 8 7 7 7 7 7 7 6 5 4 3 2 2
Wind_Direction
207 213 214 211 215 220 218 224 232 238 237 261 258 239 240 238 237 240 240 238 235 235 240 244 251 255 256 253 251 252 256 248 236 281 263 241 222 217 203 189 187 182 165
200 213 218 214 215 214 215 218 225 223 230 249 248 243 246 253 249 252 247 243 241 240 240 241 246 251 258 266 271 242 259 239 236 234 254 240 227 221 211 192 186 193 188
202 211 223 221 212 214 213 216 214 214 225 219 224 233 239 248 243 240 241 239 241 248 253 253 235 230 236 243 260 257 236 226 228 223 210 217 212 214 190 182 178 182 179
203 211 223 224 215 216 209 211 214 207 210 216 229 241 241 243 232 234 241 241 242 244 249 250 247 236 228 239 243 231 226 209 217 215 206 205 202 201 197 180 169 182 177
219 238 244 229 212 213 199 198 203 194 204 222 226 229 230 225 232 237 233 240 246 244 239 244 240 232 236 237 238 245 243 211 207 210 181 179 184 173 181 188 178 184 191
68 33 338 337 221 203 197 195 205 208 196 208 222 223 219 224 221 221 232 233 230 234 235 237 231 217 229 237 243 229 221 210 197 195 189 186 194 191 193 192 181 168 192
27 20 40 319 263 209 200 198 208 213 211 217 225 223 223 225 227 235 234 238 237 233 229 233 226 215 217 229 223 207 196 204 222 226 211 211 204 205 199 193 196 192 181
104 103 92 243 251 204 200 201 208 206 229 235 231 230 227 228 230 238 236 231 235 234 235 229 227 226 215 216 212 176 180 183 196 231 248 262 251 234 221 214 212 208 197
131 211 219 244 217 198 197 199 209 213 229 236 238 241 238 227 233 227 223 221 222 231 226 230 233 220 209 203 198 178 176 184 196 196 193 170 178 202 209 204 190 181 170
3 307 293 240 216 207 205 202 213 232 238 238 238 255 249 233 246 238 217 217 212 219 219 219 222 212 199 202 198 184 173 173 189 177 189 207 190 183 196 211 212 183 159
353 346 339 322 262 238 215 214 229 245 254 257 266 266 261 251 251 249 229 216 214 210 210 205 206 194 196 193 198 199 202 181 167 173 175 176 192 192 195 197 207 214 203
352 5 354 346 309 265 252 250 260 273 277 280 264 255 254 250 254 249 229 220 215 210 210 204 198 187 184 183 188 180 181 194 178 177 180 182 187 209 213 219 216 217 222
4 354 357 355 344 319 300 286 280 271 268 261 245 244 247 254 245 233 226 208 205 207 211 200 191 186 180 179 174 174 168 171 173 188 195 213 201 197 214 222 228 230 235
8 2 357 350 336 341 330 313 302 276 262 258 250 252 252 242 220 213 207 195 189 189 189 186 189 190 181 177 170 172 179 177 181 201 214 213 223 219 214 216 235 242 243
7 1 357 353 341 328 310 301 298 287 275 264 257 254 243 188 201 202 180 184 181 180 169 169 170 170 165 171 168 169 178 190 194 196 218 221 221 227 237 245 252 224 216
1 351 345 345 353 335 317 285 284 299 268 258 266 250 253 260 185 166 178 179 186 172 169 168 172 173 169 172 176 179 184 188 185 202 210 220 226 224 222 223 230 170 181
348 349 350 333 340 344 334 306 264 269 303 307 275 252 226 216 188 175 173 169 174 170 172 172 178 178 173 170 167 169 149 143 147 136 137 157 160 185 210 143 93 47 74
344 341 346 351 331 350 345 324 294 291 317 334 340 240 202 197 200 196 174 163 162 176 184 164 163 157 150 151 152 147 139 133 124 117 109 106 110 110 106 91 87 102 97
338 339 339 339 355 352 5 6 23 36 44 39 36 81 174 184 179 171 169 154 150 153 146 144 149 146 144 141 141 141 135 123 121 116 109 104 102 101 93 95 88 80 85
336 335 338 335 325 353 356 37 80 87 88 78 67 70 104 110 92 77 107 144 142 137 136 138 140 142 140 138 133 130 128 128 123 115 115 114 117 116 112 112 111 103 94
332 326 333 340 336 317 334 267 150 134 108 101 104 108 103 108 99 104 94 119 128 138 137 137 138 138 135 133 132 129 126 123 121 121 121 122 122 115 119 120 111 109 104
327 321 326 338 348 317 280 340 179 150 141 129 124 120 136 133 127 123 131 146 150 143 141 138 138 132 132 133 136 133 126 125 126 123 119 114 114 111 105 104 105 100 81
330 329 337 350 352 6 256 233 126 186 148 133 121 119 131 128 122 123 127 135 137 135 135 132 128 122 122 121 119 117 121 120 124 132 130 125 129 128 123 115 104 87 52
351 354 1 14 29 51 61 65 69 119 141 151 130 120 124 129 128 127 124 121 121 123 123 121 120 121 121 118 116 114 113 116 124 135 148 148 143 143 143 139 123 123 124
14 13 27 42 63 70 71 76 90 117 122 129 133 132 133 134 136 135 131 129 127 124 120 121 120 119 117 114 112 115 119 127 133 142 142 143 141 145 155 149 137 122 95
31 29 37 51 75 87 86 94 100 112 123 131 137 139 142 140 138 140 136 135 134 129 125 127 125 121 115 113 115 117 120 121 124 127 132 134 137 140 142 137 125 116 95